Wind_Speed
22 23 22 21 21 20 19 18 17 16 14 13 13 12 12 10 9 7 6 6 6 6 6 6 6 5 4 5 7 7 8 8 8 9 8 8 8 7 7 7 7 7 6 6 6 6 6 6 6
22 22 22 23 23 22 20 19 18 16 15 15 14 13 12 11 9 8 7 7 6 6 6 6 5 4 4 5 7 8 8 8 8 8 8 8 7 7 7 7 7 6 6 6 6 5 5 5 5
20 22 23 24 24 23 22 20 19 18 17 16 15 14 13 12 10 9 9 8 8 8 7 6 5 4 5 6 6 6 7 8 7 7 7 7 7 7 7 6 6 6 6 6 6 5 5 5 5
19 21 23 24 24 23 22 21 20 19 18 17 16 15 14 13 12 10 10 10 10 9 8 7 6 5 6 6 6 6 7 7 7 7 7 7 7 7 7 6 6 6 5 5 5 5 5 5 5
19 20 23 23 23 22 22 21 20 19 18 18 17 16 15 14 13 11 11 10 10 9 8 7 7 6 6 6 6 6 6 7 7 6 6 7 7 7 6 6 5 5 5 4 5 5 5 5 5
18 20 22 22 22 21 21 21 20 19 18 18 18 17 16 15 14 12 11 11 10 9 8 7 7 6 6 6 4 4 5 6 6 6 6 7 7 7 6 6 5 5 4 4 4 4 5 5 4
17 20 20 19 20 20 21 20 19 19 19 20 19 18 17 16 15 14 13 12 11 10 8 8 7 6 6 6 5 5 5 5 5 6 6 7 7 7 7 6 5 5 4 4 4 4 4 4 4
16 17 17 17 18 19 20 19 19 19 20 20 20 19 18 17 16 15 14 13 12 11 10 9 8 6 6 6 5 5 5 5 5 5 5 6 7 7 6 6 5 5 4 4 4 4 4 4 4
14 14 15 16 16 17 18 18 19 20 20 20 20 19 18 18 17 17 15 14 13 12 11 9 9 7 6 6 5 5 5 5 5 4 4 5 6 6 5 5 5 5 5 4 5 5 4 4 4
13 13 13 14 15 16 17 17 19 20 20 20 20 19 18 18 18 17 16 15 14 14 13 11 10 8 7 7 6 5 4 4 4 3 4 5 5 5 5 5 5 5 5 5 5 4 4 4 4
11 11 11 11 13 14 15 16 19 19 19 19 19 19 18 18 18 18 17 16 15 14 14 13 11 9 8 8 7 5 5 4 4 3 3 4 4 5 5 5 5 6 6 6 5 4 4 4 4
8 9 8 9 10 12 13 15 17 19 19 19 19 18 18 18 18 18 18 17 16 15 14 13 12 11 9 8 8 7 6 5 3 3 3 3 4 4 5 6 6 6 6 6 5 5 4 4 4
6 6 6 6 9 11 12 14 15 17 18 18 18 18 17 18 18 18 18 18 17 15 14 14 13 12 11 10 8 7 6 5 4 3 3 3 4 5 5 5 6 6 6 6 6 5 5 5 5
5 4 4 5 7 9 11 12 13 15 16 17 17 17 17 17 17 17 17 17 17 16 15 15 14 12 12 10 9 8 7 6 5 3 3 3 3 4 4 5 5 6 5 6 6 5 6 6 5
6 4 3 4 6 8 9 9 11 13 15 15 16 15 16 16 16 16 17 17 17 16 15 15 14 13 12 11 10 9 8 6 5 4 3 3 3 3 4 4 5 6 6 6 6 6 6 6 6
8 5 3 3 4 5 6 7 10 11 12 13 14 14 14 15 15 16 16 16 16 16 15 15 14 14 13 12 11 10 9 8 6 5 3 2 2 2 2 4 5 6 5 5 5 5 5 6 6
10 7 5 4 2 3 5 5 8 9 10 11 12 13 13 13 14 15 15 15 15 15 15 15 14 13 13 12 11 11 10 8 7 6 4 3 2 1 1 3 4 5 5 5 5 5 5 5 6
10 8 7 6 2 4 5 5 6 7 8 9 10 11 12 12 12 13 13 14 14 14 14 14 14 13 12 12 11 11 10 10 8 7 6 4 3 1 0 1 3 4 4 4 4 5 5 6 6
12 9 7 7 6 6 6 6 6 7 7 7 8 9 10 11 11 11 11 12 12 12 12 13 13 12 12 12 12 11 10 10 9 8 7 7 5 4 2 1 0 2 3 4 4 4 5 5 6
14 12 9 8 8 7 8 7 7 8 8 7 7 7 8 9 9 9 9 10 10 10 10 11 12 12 12 12 12 11 11 10 10 9 7 7 6 5 4 3 2 1 1 3 4 4 5 6 7
17 15 13 11 10 11 11 10 9 9 9 7 7 7 7 8 8 8 8 8 8 8 9 9 10 10 10 10 11 11 11 11 10 10 9 7 6 6 4 3 2 2 1 1 2 3 4 5 6
19 17 16 14 14 15 15 14 12 11 10 8 7 9 8 8 8 8 7 7 7 7 7 7 8 8 8 9 9 9 10 10 9 9 8 7 6 6 5 4 3 2 1 1 1 2 3 4 5
20 19 20 18 18 18 17 18 15 14 13 10 10 10 10 10 9 8 7 7 7 7 7 7 7 7 6 7 7 8 8 9 9 9 8 7 6 5 6 5 4 3 2 2 2 2 3 4 5
21 21 22 22 22 22 19 20 18 16 16 15 13 12 11 11 11 9 8 8 7 7 7 6 6 6 6 6 6 7 7 8 9 9 8 7 6 6 6 6 5 4 3 4 4 5 5 5 5
24 24 24 24 25 23 21 23 21 18 17 17 16 15 13 13 12 11 10 10 9 8 8 8 7 6 6 6 6 6 7 7 8 9 9 8 7 7 7 6 6 5 5 5 6 5 5 5 6
25 26 27 26 25 23 22 23 20 18 18 18 17 16 15 15 12 12 11 10 10 9 9 9 8 7 7 7 6 6 6 7 7 8 9 9 8 8 8 7 7 7 6 7 7 7 7 7 8
26 27 26 26 26 26 24 23 22 19 19 18 18 18 17 17 14 13 13 12 12 12 12 11 10 9 9 9 8 8 8 7 7 8 8 9 9 9 8 8 8 8 8 8 8 9 9 9 10
28 27 27 28 28 29 28 26 24 22 20 19 19 20 19 19 17 15 14 14 13 14 14 13 12 12 11 10 10 10 10 9 9 8 8 9 10 10 9 10 10 10 10 10 10 10 10 10 11
29 29 30 30 30 31 31 29 24 23 22 22 21 21 20 19 18 17 17 16 16 16 16 15 15 14 13 12 12 12 12 11 11 10 10 11 11 11 11 11 11 12 12 12 12 12 12 12 12
30 31 31 33 32 31 32 31 27 26 25 24 24 22 20 20 21 20 19 18 19 18 17 18 17 16 15 15 15 14 14 14 13 12 12 13 13 13 13 12 13 13 13 13 14 14 14 14 14
Wind_Direction
66 59 54 54 51 48 47 47 47 45 47 47 43 40 42 45 43 47 53 63 74 81 90 96 102 119 133 155 161 162 164 168 165 160 161 158 155 153 150 145 142 144 142 139 134 130 131 130 127
64 59 54 52 49 46 46 47 48 45 47 48 47 45 45 46 48 52 56 63 70 80 83 91 101 113 125 142 154 155 158 162 165 164 166 162 162 159 155 153 152 154 151 147 143 137 133 133 131
64 58 54 49 47 43 43 44 44 44 45 47 47 46 46 50 54 55 62 68 72 77 82 85 98 110 125 131 140 149 156 158 158 165 171 171 170 166 163 162 163 160 157 155 153 147 142 142 133
60 55 52 48 44 41 42 44 44 43 43 45 47 46 47 51 57 57 60 66 70 74 77 81 91 106 117 123 129 143 151 155 158 163 165 171 171 170 169 171 171 167 160 157 157 154 148 149 139
54 50 47 45 41 42 42 45 43 43 42 45 48 47 47 51 55 58 62 67 70 72 73 80 88 102 115 117 126 144 155 156 157 158 166 170 172 172 174 174 172 170 164 160 161 161 155 150 149
57 49 44 42 40 41 44 45 43 45 44 46 49 48 49 54 57 58 62 65 66 68 72 79 86 93 102 112 124 138 153 150 154 155 161 170 173 174 176 175 170 165 170 170 166 165 161 161 160
58 52 44 45 41 41 44 44 44 47 45 46 49 50 50 54 57 57 60 64 65 65 70 78 87 91 92 97 106 119 134 145 149 154 157 168 173 175 175 177 174 172 174 176 175 168 166 165 170
58 52 44 46 42 42 42 42 44 45 45 45 47 48 49 53 58 60 60 62 63 63 68 74 81 89 91 91 93 107 120 135 142 154 160 167 176 179 179 183 183 181 179 182 184 178 174 170 177
61 53 45 44 44 44 43 42 45 44 44 45 46 46 49 52 56 60 61 61 61 64 67 72 79 83 82 82 85 106 119 126 133 148 157 168 176 181 183 186 191 190 186 183 186 189 190 184 188
65 55 48 45 42 42 43 45 45 43 42 43 43 45 48 50 54 59 63 63 63 63 64 68 70 75 74 76 82 98 117 126 135 153 166 170 182 185 185 190 196 198 199 192 191 196 195 196 201
68 59 52 47 41 38 38 44 46 44 42 42 43 44 47 49 53 58 61 63 63 65 66 67 67 68 70 71 75 88 105 121 134 149 167 178 180 184 188 194 196 195 197 196 193 194 201 211 213
81 70 55 48 39 39 39 43 45 42 41 41 42 43 46 49 52 54 57 59 60 62 64 67 67 69 71 71 71 75 88 101 111 138 158 172 182 184 192 197 194 193 195 202 206 204 211 216 211
107 88 68 50 39 38 38 41 44 40 39 40 41 43 45 49 52 53 55 56 57 59 63 65 66 67 69 70 72 71 74 79 91 112 146 155 165 180 181 180 187 194 203 208 212 216 221 220 220
146 118 76 55 41 33 30 35 40 38 35 34 36 40 43 46 50 52 54 54 54 55 58 60 62 65 67 67 68 66 64 65 70 94 127 145 154 171 181 177 184 193 201 208 216 217 223 223 225
181 147 98 62 49 31 25 29 34 33 32 28 30 34 39 42 45 49 50 51 51 52 53 56 58 60 62 62 62 63 63 63 59 66 92 113 126 157 186 191 194 201 207 212 218 223 225 224 229
196 184 159 103 53 20 8 22 16 18 25 23 24 28 35 39 41 44 47 49 50 50 50 52 54 56 58 58 58 57 56 57 54 59 69 83 99 131 179 200 207 213 215 216 222 227 227 227 231
208 206 187 162 76 357 328 348 356 4 14 16 18 23 29 35 37 39 43 46 47 48 49 50 50 51 53 55 56 53 50 52 53 55 60 63 69 95 179 200 216 220 224 228 234 231 230 233 233
209 208 193 191 218 273 285 311 339 349 357 1 9 16 20 26 30 33 37 41 42 43 45 48 48 49 50 52 53 52 51 50 50 52 56 62 65 58 49 200 219 229 232 234 239 236 239 242 246
219 215 209 214 229 258 272 281 305 318 328 340 354 4 8 15 19 24 29 34 38 40 42 44 46 46 47 48 50 51 50 49 48 51 54 56 60 64 67 78 201 224 234 239 242 236 240 246 251
218 220 216 223 228 245 266 270 279 285 295 315 331 347 354 0 4 12 19 24 30 35 40 42 44 44 45 44 45 47 47 47 48 50 49 46 46 53 64 68 70 60 239 230 232 234 242 251 256
223 222 221 229 239 247 257 260 261 268 281 288 304 321 329 342 352 358 2 11 17 24 31 35 36 37 38 38 40 41 42 42 44 44 42 42 41 40 41 44 47 45 40 220 236 240 248 255 257
224 223 229 235 242 250 255 259 253 260 270 276 286 299 304 320 337 346 347 358 360 5 11 18 23 25 27 30 32 33 34 35 34 33 32 31 29 29 32 27 11 356 345 314 276 264 262 263 264
224 228 233 235 241 246 247 257 256 259 260 261 274 281 291 302 318 332 331 335 339 342 349 358 5 7 10 15 20 23 24 24 21 15 15 19 17 18 21 17 4 350 336 323 310 307 299 287 279
228 231 234 236 240 242 242 252 254 256 260 261 270 274 281 287 298 311 316 312 318 322 323 331 341 343 348 355 360 6 12 14 13 14 15 11 7 8 8 6 1 357 343 326 312 304 300 301 296
227 231 234 235 239 243 243 249 253 257 262 262 267 268 272 278 282 291 299 297 297 307 311 313 318 322 325 331 340 348 356 2 5 8 9 6 7 8 5 358 351 346 336 325 319 303 301 302 301
226 230 234 238 242 248 245 248 252 258 261 262 262 260 259 267 271 280 287 285 285 291 300 300 307 307 309 309 316 323 332 339 348 355 358 1 1 356 354 351 343 336 326 321 319 309 300 304 306
226 230 235 242 244 248 247 249 252 255 258 260 259 261 257 265 265 270 275 280 282 287 295 294 291 294 296 296 301 304 309 316 326 336 342 346 348 346 343 340 339 332 326 319 314 312 306 304 307
230 230 234 238 243 246 249 252 254 254 257 260 260 259 259 261 263 267 276 276 281 287 288 287 286 290 290 290 294 300 303 303 307 314 321 326 329 334 336 335 333 327 321 314 311 309 302 300 304
226 228 231 235 240 246 250 252 253 255 256 258 259 259 257 259 261 263 268 273 279 281 281 282 282 284 286 290 293 297 298 299 298 299 304 309 312 316 320 320 320 320 317 313 308 306 301 297 299
228 229 230 234 238 244 247 250 248 251 254 258 259 258 257 260 258 262 264 267 272 275 279 276 275 279 285 288 290 293 296 299 295 293 297 300 303 305 305 306 309 313 314 311 307 303 302 299 298
Height
5904 5902 5901 5900 5899 5898 5896 5895 5894 5892 5891 5889 5888 5887 5885 5885 5884 5885 5882 5880 5879 5879 5879 5879 5879 5880 5880 5880 5881 5882 5883 5884 5884 5885 5886 5887 5888 5889 5889 5890 5890 5891 5891 5891 5891 5892 5892 5892 5892
5906 5905 5904 5902 5900 5899 5898 5897 5896 5894 5893 5891 5890 5888 5887 5885 5884 5883 5881 5881 5880 5880 5880 5880 5880 5880 5881 5881 5881 5882 5883 5884 5885 5886 5887 5888 5889 5889 5890 5890 5891 5891 5892 5892 5892 5892 5893 5893 5893
5908 5907 5906 5904 5902 5901 5901 5899 5897 5896 5894 5892 5892 5890 5889 5887 5885 5883 5883 5882 5881 5880 5880 5881 5881 5881 5881 5881 5882 5883 5884 5884 5885 5886 5887 5888 5889 5890 5890 5891 5891 5892 5892 5892 5892 5893 5893 5893 5893
5911 5910 5908 5906 5904 5904 5903 5901 5899 5898 5896 5895 5893 5892 5890 5888 5886 5885 5883 5883 5882 5882 5881 5881 5881 5882 5882 5882 5883 5884 5884 5885 5886 5887 5887 5888 5889 5890 5891 5891 5892 5892 5892 5893 5893 5893 5894 5894 5894
5914 5912 5910 5908 5907 5907 5905 5904 5902 5900 5899 5896 5895 5893 5892 5890 5887 5886 5885 5884 5883 5883 5883 5882 5882 5883 5883 5883 5884 5884 5885 5885 5886 5887 5888 5888 5889 5890 5891 5892 5892 5893 5893 5893 5893 5894 5894 5894 5895
5917 5914 5913 5911 5910 5910 5908 5906 5905 5903 5901 5899 5897 5895 5893 5892 5889 5887 5886 5885 5885 5884 5884 5884 5883 5884 5884 5884 5884 5885 5885 5886 5886 5887 5888 5889 5889 5890 5891 5892 5892 5893 5893 5893 5894 5894 5894 5895 5895
5918 5916 5915 5914 5913 5912 5911 5909 5908 5906 5903 5901 5899 5897 5895 5893 5891 5889 5888 5887 5886 5886 5885 5885 5884 5884 5885 5885 5885 5885 5886 5886 5887 5887 5888 5889 5890 5890 5891 5892 5892 5893 5893 5894 5894 5894 5895 5895 5895
5919 5918 5917 5917 5916 5915 5914 5912 5910 5908 5906 5903 5901 5899 5897 5896 5893 5891 5890 5889 5888 5887 5887 5886 5885 5885 5885 5886 5886 5886 5886 5887 5887 5888 5888 5889 5890 5890 5891 5892 5892 5893 5893 5894 5894 5894 5895 5895 5895
5922 5922 5920 5919 5919 5918 5916 5915 5913 5910 5908 5906 5904 5902 5900 5898 5896 5894 5892 5891 5890 5889 5888 5887 5887 5886 5886 5886 5886 5886 5887 5887 5887 5888 5888 5889 5889 5890 5891 5891 5892 5893 5893 5893 5894 5894 5895 5895 5895
5923 5923 5922 5922 5921 5920 5918 5917 5915 5912 5910 5908 5906 5904 5902 5900 5898 5896 5895 5894 5892 5891 5890 5889 5888 5888 5887 5887 5887 5887 5887 5887 5888 5888 5888 5888 5888 5889 5890 5891 5891 5892 5893 5893 5893 5894 5894 5895 5895
5925 5925 5924 5924 5923 5922 5920 5919 5917 5915 5913 5911 5909 5907 5905 5903 5901 5899 5898 5896 5895 5894 5892 5891 5890 5889 5888 5888 5887 5887 5887 5887 5888 5888 5888 5887 5888 5889 5890 5890 5891 5891 5892 5892 5893 5893 5894 5894 5894
5926 5926 5925 5925 5924 5923 5922 5921 5919 5918 5916 5914 5912 5910 5908 5905 5903 5901 5900 5898 5897 5896 5895 5893 5892 5891 5890 5889 5889 5888 5888 5888 5888 5888 5888 5888 5888 5889 5889 5890 5890 5891 5891 5892 5892 5893 5893 5893 5894
5926 5927 5926 5926 5925 5925 5924 5922 5922 5920 5919 5917 5915 5912 5910 5908 5906 5904 5902 5900 5899 5898 5897 5895 5894 5893 5892 5891 5890 5889 5889 5888 5888 5888 5888 5888 5888 5888 5889 5889 5890 5890 5891 5891 5891 5892 5892 5893 5892
5927 5927 5927 5926 5926 5926 5925 5924 5924 5922 5921 5919 5917 5915 5913 5910 5908 5906 5904 5903 5901 5900 5898 5897 5895 5894 5893 5892 5891 5890 5890 5889 5889 5889 5888 5888 5888 5888 5889 5889 5889 5890 5890 5890 5890 5891 5891 5891 5892
5927 5928 5928 5927 5927 5927 5927 5926 5925 5924 5923 5921 5919 5917 5915 5913 5911 5909 5907 5905 5903 5902 5900 5899 5897 5896 5895 5894 5893 5892 5891 5890 5889 5889 5888 5888 5888 5888 5888 5888 5889 5889 5889 5889 5890 5890 5890 5890 5891
5926 5927 5928 5928 5928 5928 5929 5927 5926 5925 5924 5923 5921 5919 5917 5915 5913 5911 5909 5907 5905 5904 5902 5900 5899 5898 5896 5895 5894 5893 5892 5891 5890 5889 5888 5888 5888 5888 5887 5888 5888 5888 5888 5889 5889 5889 5889 5889 5890
5924 5925 5927 5927 5927 5927 5928 5927 5927 5925 5924 5924 5922 5921 5919 5917 5915 5913 5911 5909 5907 5906 5904 5902 5901 5899 5898 5897 5896 5894 5893 5892 5891 5890 5889 5888 5888 5887 5887 5887 5887 5888 5888 5888 5888 5888 5888 5888 5889
5923 5924 5924 5925 5925 5926 5926 5926 5926 5925 5924 5924 5923 5922 5920 5918 5917 5915 5913 5911 5909 5908 5906 5904 5903 5901 5900 5898 5897 5896 5894 5893 5892 5891 5889 5888 5888 5887 5887 5887 5887 5887 5887 5887 5887 5887 5887 5887 5887
5921 5921 5922 5923 5923 5924 5924 5924 5924 5924 5924 5924 5924 5922 5921 5920 5918 5916 5914 5912 5911 5909 5908 5906 5905 5903 5902 5900 5898 5897 5896 5894 5893 5892 5890 5889 5888 5887 5887 5886 5886 5886 5886 5886 5886 5886 5886 5886 5886
5917 5918 5920 5921 5921 5922 5922 5922 5923 5922 5923 5923 5923 5922 5921 5920 5918 5917 5916 5914 5912 5911 5909 5908 5906 5905 5903 5902 5900 5898 5897 5895 5894 5892 5891 5890 5889 5888 5887 5886 5886 5885 5885 5885 5885 5885 5885 5885 5885
5914 5915 5917 5918 5919 5919 5920 5920 5920 5921 5921 5921 5922 5921 5921 5920 5919 5917 5916 5914 5913 5912 5910 5909 5907 5906 5904 5903 5901 5899 5898 5896 5895 5893 5891 5890 5889 5888 5887 5886 5886 5885 5885 5884 5884 5884 5883 5883 5883
5909 5912 5914 5914 5915 5916 5917 5917 5918 5919 5919 5919 5919 5920 5919 5919 5918 5917 5916 5914 5913 5912 5911 5909 5908 5906 5905 5903 5902 5900 5898 5897 5895 5893 5892 5891 5889 5888 5887 5886 5885 5885 5884 5883 5883 5883 5882 5881 5881
5905 5908 5909 5910 5911 5912 5913 5913 5915 5915 5916 5917 5917 5917 5917 5917 5917 5916 5915 5914 5913 5912 5910 5909 5908 5906 5905 5904 5902 5900 5899 5897 5896 5893 5892 5890 5889 5888 5886 5885 5885 5884 5883 5883 5882 5882 5881 5880 5880
5901 5903 5904 5905 5906 5907 5909 5909 5910 5911 5912 5912 5913 5914 5914 5914 5915 5914 5913 5913 5911 5910 5909 5908 5907 5906 5905 5903 5902 5900 5899 5897 5895 5893 5891 5890 5888 5887 5886 5885 5884 5883 5883 5882 5881 5880 5879 5879 5878
5896 5898 5899 5900 5900 5902 5905 5904 5906 5907 5908 5908 5908 5909 5910 5910 5911 5912 5911 5910 5910 5909 5908 5907 5906 5905 5903 5902 5901 5899 5898 5897 5895 5893 5891 5889 5888 5887 5886 5885 5883 5882 5881 5881 5880 5879 5878 5877 5876
5891 5892 5894 5895 5896 5898 5899 5899 5901 5902 5903 5903 5903 5904 5905 5906 5906 5907 5907 5907 5907 5906 5906 5905 5904 5903 5902 5900 5899 5898 5897 5896 5894 5893 5891 5889 5888 5886 5885 5884 5882 5881 5880 5879 5878 5877 5876 5875 5874
5885 5886 5889 5890 5891 5892 5892 5894 5895 5896 5897 5897 5898 5899 5900 5902 5902 5903 5904 5903 5903 5903 5903 5902 5901 5900 5899 5898 5897 5896 5895 5894 5893 5891 5890 5888 5887 5886 5884 5882 5881 5879 5878 5877 5876 5874 5873 5872 5871
5878 5881 5882 5883 5884 5885 5886 5888 5890 5891 5892 5893 5893 5894 5896 5898 5898 5899 5899 5900 5900 5900 5899 5898 5897 5897 5896 5895 5894 5894 5893 5892 5890 5889 5888 5887 5885 5884 5882 5881 5879 5877 5876 5875 5873 5872 5871 5869 5868
5871 5873 5874 5876 5877 5878 5879 5883 5885 5886 5887 5888 5888 5889 5890 5892 5893 5894 5895 5895 5896 5895 5895 5894 5894 5893 5892 5892 5891 5890 5889 5888 5888 5887 5885 5884 5883 5881 5880 5878 5877 5875 5873 5872 5870 5869 5867 5866 5865
5864 5865 5867 5869 5871 5872 5873 5877 5879 5879 5880 5882 5882 5883 5885 5886 5887 5889 5890 5891 5891 5891 5890 5890 5889 5889 5888 5888 5888 5887 5886 5885 5884 5883 5882 5881 5879 5878 5876 5874 5873 5872 5870 5868 5867 5865 5864 5862 5861